This demonstration page uses our WeatherBlox Daily Observations layout. Learn more.

39.29038, -76.61219

Hourly Observations for July 22, 2018

Temp ( °F °C ) Dew Point ( °F °C ) Humidity (%) Winds ( mph kmh ) Pressure ( in mb ) Visibility ( mi km ) Precip ( " mm )
12:54 am 00:54 undefined 69 20.6 67 19.4 93 93 undefined N/A 29.6 1002 N/A 0.44 11.176
1:54 am 01:54 undefined 67 19.4 64 17.8 91 91 undefined N/A 29.6 1003 N/A 0.02 0.508
2:54 am 02:54 undefined 69 20.6 66 18.9 90 90 undefined N/A 29.64 1004 N/A 0 0
3:54 am 03:54 undefined 67 19.4 65 18.3 93 93 undefined N/A 29.67 1005 N/A 0 0
4:54 am 04:54 undefined 67 19.4 64 17.8 91 91 undefined N/A 29.71 1006 N/A 0 0
5:54 am 05:54 undefined 66 18.9 63 17.2 90 90 undefined N/A 29.74 1007 N/A 0 0
6:54 am 06:54 undefined 66 18.9 63 17.2 90 90 undefined N/A 29.78 1008 N/A 0 0
7:54 am 07:54 undefined 68 20 64 17.8 87 87 undefined N/A 29.82 1010 N/A 0 0
8:54 am 08:54 undefined 69 20.6 64 17.8 84 84 undefined N/A 29.85 1011 N/A 0 0
9:54 am 09:54 undefined 72 22.2 65 18.3 79 79 undefined N/A 29.88 1012 N/A 0 0
10:54 am 10:54 undefined 75 23.9 66 18.9 74 74 undefined N/A 29.89 1012 N/A 0 0
11:54 am 11:54 undefined 78 25.6 67 19.4 69 69 undefined N/A 29.9 1012 N/A 0 0
12:54 pm 12:54 undefined 76 24.4 68 20 77 77 undefined N/A 29.86 1011 N/A 0 0
1:54 pm 13:54 undefined 77 25 71 21.7 82 82 undefined N/A 29.81 1010 N/A 0 0
2:54 pm 14:54 undefined 77 25 71 21.7 82 82 undefined N/A 29.79 1009 N/A 0.01 0.254
3:54 pm 15:54 undefined 73 22.8 70 21.1 90 90 undefined N/A 29.82 1010 N/A 0.5 12.7
4:54 pm 16:54 undefined 76 24.4 71 21.7 85 85 undefined N/A 29.87 1011 N/A 0.01 0.254
5:54 pm 17:54 undefined 78 25.6 70 21.1 76 76 undefined N/A 29.84 1011 N/A 0 0
6:54 pm 18:54 undefined 76 24.4 72 22.2 88 88 undefined N/A 29.82 1010 N/A 0.02 0.508
7:54 pm 19:54 undefined 74 23.3 71 21.7 91 91 undefined N/A 29.82 1010 N/A 0.39 9.906
8:54 pm 20:54 undefined 73 22.8 70 21.1 90 90 undefined N/A 29.89 1012 N/A 0.01 0.254
9:54 pm 21:54 undefined 74 23.3 70 21.1 88 88 undefined N/A 29.9 1012 N/A 0 0
10:54 pm 22:54 undefined 74 23.3 71 21.7 91 91 undefined N/A 29.91 1013 N/A 0 0
11:54 pm 23:54 undefined 75 23.9 72 22.2 90 90 undefined N/A 29.91 1013 N/A 0 0

Powered by AerisWeather